Accueil
METAR-TAF:

METAR-TAF

Aéroports :

Aérodrome de Reims - Prunay

Reims, France

latitude: 49-12-31N, longitude: 004-09-24E, altitude: 95 m

Observation

Le bulletin a été fait il y a 21 minutes, à 10:30 UTC
Vent 10 kt de sud/sud-ouest, variant entre sud et sud-ouest
Température 16°C
Humidité 51%
Pression 1008 hPa
Visibilité 10 km ou plus
Quelques nuages à une hauteur de 4200 ft
Nuages épars à une hauteur de 4800 ft

METAR: LFQA 141030Z AUTO 20010KT 170V230 9999 FEW042 SCT048 16/06 Q1008

Heure: 12:51 (10:51 UTC)


TAF: absent

Observations et prévisions météorologiques de plus de 4000 aéroports (messages METAR et TAF).

Les stations disponibles sont représentées par des disques jaunes et rouges sur la carte.

Passer la souris dessus pour voir le nom de la station.

Cliquer dessus pour voir les observations et prévisions météorologiques.

Pour changer de carte: cliquez sur les boutons verts avec une croix noire pour zoomer, sur le bouton vert avec un tiret pour effectuer un zoom arrière, ou sur les flèches vertes pour les cartes adjacentes.


METAR-TAF: